カタログに戻る

STARLINK-33808

運用中通信VLEO
NORAD 63767·PAYLOAD·🇺🇸 United States

打ち上げ Apr 29, 2025 から Cape Canaveral Space Force Station

Loading…

次のパス (今後24時間)

TLE

最新Source: CelesTrak SupGP

元期: Sep 15, 2026, 03:00 UTC

1 63767C 25089S   26258.12548611 -.00031122  00000+0 -11273-2 0  2588
2 63767  43.0043  55.4032 0001504 264.4048 298.0767 15.27592859    15

AllMySatでSTARLINK-33808をリアルタイム追跡

Download on the App Store